| time (UTC) | temp C | wind direction | speed KPH | gust KPH | rain 1hr cm | rain 24hr cm | rain mn cm | humidity % | barometer mb |
| 20260504050545 | 13 | 198 | 1.6 | 8.0 | 0.00 | 0.00 | 0.00 | 42 | 1000.6 |
| 20260504045042 | 13 | 198 | 3.2 | 9.7 | 0.00 | 0.00 | 0.00 | 41 | 1000.9 |
| 20260504044542 | 13 | 208 | 1.6 | 6.4 | 0.00 | 0.00 | 0.00 | 40 | 1001.0 |
| 20260504044041 | 13 | 208 | 1.6 | 6.4 | 0.00 | 0.00 | 0.00 | 40 | 1001.1 |
| 20260504043541 | 13 | 208 | 1.6 | 6.4 | 0.00 | 0.00 | 0.00 | 39 | 1001.2 |
| 20260504043043 | 14 | 208 | 1.6 | 9.7 | 0.00 | 0.00 | 0.00 | 39 | 1001.3 |
| 20260504042539 | 14 | 208 | 3.2 | 9.7 | 0.00 | 0.00 | 0.00 | 38 | 1001.3 |
| 20260504042038 | 14 | 265 | 0.0 | 3.2 | 0.00 | 0.00 | 0.00 | 37 | 1001.4 |
| 20260504041538 | 15 | 265 | 0.0 | 3.2 | 0.00 | 0.00 | 0.00 | 37 | 1001.5 |
| 20260504041038 | 15 | 265 | 1.6 | 3.2 | 0.00 | 0.00 | 0.00 | 37 | 1001.6 |
| 20260504040537 | 15 | 265 | 0.0 | 4.8 | 0.00 | 0.00 | 0.00 | 37 | 1001.7 |
| 20260504040036 | 15 | 265 | 0.0 | 4.8 | 0.00 | 0.00 | 0.00 | 37 | 1001.8 |
| 20260504035038 | 15 | 265 | 0.0 | 4.8 | 0.00 | 0.00 | 0.00 | 36 | 1002.0 |
| 20260504034536 | 15 | 265 | 1.6 | 4.8 | 0.00 | 0.00 | 0.00 | 36 | 1002.1 |
| 20260504034035 | 15 | 265 | 0.0 | 4.8 | 0.00 | 0.00 | 0.00 | 36 | 1002.1 |
| 20260504033535 | 15 | 265 | 0.0 | 4.8 | 0.00 | 0.00 | 0.00 | 36 | 1002.2 |
| 20260504033035 | 15 | 265 | 0.0 | 3.2 | 0.00 | 0.00 | 0.00 | 36 | 1002.3 |
| 20260504032534 | 15 | 265 | 0.0 | 3.2 | 0.00 | 0.00 | 0.00 | 36 | 1002.3 |
| 20260504032036 | 15 | 265 | 0.0 | 4.8 | 0.00 | 0.00 | 0.00 | 36 | 1002.4 |
| 20260504031534 | 15 | 265 | 0.0 | 4.8 | 0.00 | 0.00 | 0.00 | 36 | 1002.5 |
| 20260504031032 | 15 | 265 | 1.6 | 3.2 | 0.00 | 0.00 | 0.00 | 36 | 1002.5 |
| 20260504030531 | 15 | 265 | 0.0 | 3.2 | 0.00 | 0.00 | 0.00 | 36 | 1002.5 |
| 20260504030031 | 16 | 265 | 0.0 | 4.8 | 0.00 | 0.00 | 0.00 | 35 | 1002.5 |
| 20260504025031 | 16 | 265 | 1.6 | 6.4 | 0.00 | 0.00 | 0.00 | 35 | 1002.6 |
| 20260504024534 | 16 | 265 | 1.6 | 6.4 | 0.00 | 0.00 | 0.00 | 35 | 1002.6 |
| 20260504024033 | 16 | 265 | 1.6 | 6.4 | 0.00 | 0.00 | 0.00 | 35 | 1002.6 |
| 20260504023530 | 16 | 265 | 1.6 | 4.8 | 0.00 | 0.00 | 0.00 | 35 | 1002.6 |
| 20260504023034 | 16 | 265 | 1.6 | 9.7 | 0.00 | 0.00 | 0.00 | 35 | 1002.6 |
| 20260504022533 | 16 | 265 | 3.2 | 9.7 | 0.00 | 0.00 | 0.00 | 35 | 1002.6 |
| 20260504022031 | 16 | 266 | 1.6 | 4.8 | 0.00 | 0.00 | 0.00 | 35 | 1002.6 |
| 20260504021529 | 16 | 266 | 1.6 | 4.8 | 0.00 | 0.00 | 0.00 | 35 | 1002.6 |
| 20260504021030 | 16 | 266 | 1.6 | 4.8 | 0.00 | 0.00 | 0.00 | 35 | 1002.6 |
| 20260504020529 | 16 | 266 | 0.0 | 6.4 | 0.00 | 0.00 | 0.00 | 35 | 1002.6 |
| 20260504020029 | 16 | 266 | 1.6 | 6.4 | 0.00 | 0.00 | 0.00 | 34 | 1002.5 |
| 20260504015029 | 17 | 266 | 1.6 | 6.4 | 0.00 | 0.00 | 0.00 | 34 | 1002.6 |
| 20260504014538 | 17 | 266 | 1.6 | 6.4 | 0.00 | 0.00 | 0.00 | 34 | 1002.7 |
| 20260504014028 | 17 | 266 | 1.6 | 11.3 | 0.00 | 0.00 | 0.00 | 33 | 1002.7 |
| 20260504013528 | 17 | 266 | 1.6 | 11.3 | 0.00 | 0.00 | 0.00 | 33 | 1002.7 |
| 20260504013036 | 17 | 268 | 1.6 | 6.4 | 0.00 | 0.00 | 0.00 | 32 | 1002.7 |
| 20260504012528 | 17 | 268 | 1.6 | 6.4 | 0.00 | 0.00 | 0.00 | 32 | 1002.7 |
| 20260504012028 | 18 | 268 | 0.0 | 6.4 | 0.00 | 0.00 | 0.00 | 32 | 1002.7 |
| 20260504011527 | 18 | 268 | 1.6 | 9.7 | 0.00 | 0.00 | 0.00 | 32 | 1002.7 |
| 20260504011026 | 18 | 269 | 1.6 | 9.7 | 0.00 | 0.00 | 0.00 | 31 | 1002.8 |
| 20260504010528 | 18 | 269 | 1.6 | 9.7 | 0.00 | 0.00 | 0.00 | 30 | 1002.8 |
| 20260504010026 | 18 | 269 | 1.6 | 11.3 | 0.00 | 0.00 | 0.00 | 30 | 1002.8 |
| 20260504005027 | 18 | 269 | 3.2 | 12.9 | 0.00 | 0.00 | 0.00 | 31 | 1002.8 |
| 20260504004532 | 18 | 269 | 6.4 | 12.9 | 0.00 | 0.00 | 0.00 | 29 | 1002.8 |
| 20260504004026 | 18 | 277 | 3.2 | 12.9 | 0.00 | 0.00 | 0.00 | 30 | 1002.8 |
| 20260504003526 | 18 | 258 | 1.6 | 14.5 | 0.00 | 0.00 | 0.00 | 30 | 1002.8 |
| 20260504003026 | 18 | 259 | 3.2 | 14.5 | 0.00 | 0.00 | 0.00 | 29 | 1002.9 |
| 20260504002526 | 19 | 247 | 6.4 | 12.9 | 0.00 | 0.00 | 0.00 | 28 | 1002.9 |
| 20260504002026 | 19 | 249 | 6.4 | 12.9 | 0.00 | 0.00 | 0.00 | 29 | 1003.0 |
| 20260504001526 | 19 | 263 | 8.0 | 14.5 | 0.00 | 0.00 | 0.00 | 28 | 1003.1 |
| 20260504001026 | 20 | 267 | 3.2 | 19.3 | 0.00 | 0.00 | 0.00 | 28 | 1003.1 |
| 20260504000529 | 20 | 261 | 8.0 | 19.3 | 0.00 | 0.00 | 0.00 | 26 | 1003.0 |
| 20260504000026 | 20 | 242 | 6.4 | 19.3 | 0.00 | 0.00 | 0.00 | 26 | 1003.0 |
| 20260503235027 | 20 | 259 | 9.7 | 16.1 | 0.00 | 0.00 | 0.00 | 24 | 1003.0 |
| 20260503234527 | 20 | 227 | 4.8 | 16.1 | 0.00 | 0.00 | 0.00 | 27 | 1003.0 |
| 20260503234028 | 20 | 275 | 4.8 | 19.3 | 0.00 | 0.00 | 0.00 | 26 | 1003.0 |
| 20260503233524 | 20 | 271 | 4.8 | 20.9 | 0.00 | 0.00 | 0.00 | 25 | 1003.1 |
| 20260503233024 | 20 | 265 | 6.4 | 19.3 | 0.00 | 0.00 | 0.00 | 25 | 1003.2 |
| 20260503232524 | 20 | 299 | 6.4 | 20.9 | 0.00 | 0.00 | 0.00 | 24 | 1003.2 |
| 20260503232027 | 20 | 253 | 8.0 | 20.9 | 0.00 | 0.00 | 0.00 | 25 | 1003.2 |
| 20260503231524 | 20 | 284 | 8.0 | 17.7 | 0.00 | 0.00 | 0.00 | 25 | 1003.2 |
| 20260503231024 | 20 | 298 | 8.0 | 24.1 | 0.00 | 0.00 | 0.00 | 25 | 1003.2 |
| 20260503230523 | 21 | 263 | 11.3 | 24.1 | 0.00 | 0.00 | 0.00 | 25 | 1003.2 |
| 20260503230024 | 20 | 253 | 11.3 | 24.1 | 0.00 | 0.00 | 0.00 | 26 | 1003.3 |
| 20260503225024 | 21 | 301 | 9.7 | 22.5 | 0.00 | 0.00 | 0.00 | 24 | 1003.3 |
| 20260503224524 | 21 | 271 | 3.2 | 14.5 | 0.00 | 0.00 | 0.00 | 23 | 1003.3 |
| 20260503224027 | 21 | 291 | 3.2 | 19.3 | 0.00 | 0.00 | 0.00 | 22 | 1003.3 |
| 20260503223523 | 21 | 292 | 8.0 | 19.3 | 0.00 | 0.00 | 0.00 | 22 | 1003.4 |
| 20260503223023 | 21 | 286 | 6.4 | 20.9 | 0.00 | 0.00 | 0.00 | 23 | 1003.4 |
| 20260503222522 | 21 | 261 | 11.3 | 20.9 | 0.00 | 0.00 | 0.00 | 22 | 1003.4 |
| 20260503222022 | 21 | 291 | 6.4 | 17.7 | 0.00 | 0.00 | 0.00 | 23 | 1003.5 |
| 20260503221522 | 21 | 261 | 8.0 | 22.5 | 0.00 | 0.00 | 0.00 | 25 | 1003.4 |
| 20260503221023 | 21 | 290 | 9.7 | 22.5 | 0.00 | 0.00 | 0.00 | 24 | 1003.5 |
| 20260503220522 | 21 | 281 | 8.0 | 29.0 | 0.00 | 0.00 | 0.00 | 26 | 1003.5 |
| 20260503220022 | 21 | 270 | 9.7 | 29.0 | 0.00 | 0.00 | 0.00 | 25 | 1003.4 |
| 20260503215021 | 21 | 273 | 11.3 | 20.9 | 0.00 | 0.00 | 0.00 | 24 | 1003.5 |
| 20260503214521 | 21 | 286 | 8.0 | 17.7 | 0.00 | 0.00 | 0.00 | 24 | 1003.5 |
| 20260503214021 | 21 | 278 | 9.7 | 17.7 | 0.00 | 0.00 | 0.00 | 23 | 1003.5 |
| 20260503213520 | 21 | 292 | 4.8 | 19.3 | 0.00 | 0.00 | 0.00 | 23 | 1003.5 |
| 20260503213019 | 21 | 289 | 9.7 | 25.7 | 0.00 | 0.00 | 0.00 | 23 | 1003.5 |
| 20260503212519 | 21 | 286 | 8.0 | 25.7 | 0.00 | 0.00 | 0.00 | 22 | 1003.7 |
| 20260503212018 | 21 | 294 | 9.7 | 19.3 | 0.00 | 0.00 | 0.00 | 23 | 1003.7 |
| 20260503211518 | 21 | 278 | 8.0 | 27.4 | 0.00 | 0.00 | 0.00 | 24 | 1003.7 |
| 20260503211018 | 20 | 293 | 11.3 | 27.4 | 0.00 | 0.00 | 0.00 | 24 | 1003.7 |
| 20260503210522 | 20 | 284 | 9.7 | 25.7 | 0.00 | 0.00 | 0.00 | 23 | 1003.7 |
| 20260503210017 | 21 | 278 | 11.3 | 25.7 | 0.00 | 0.00 | 0.00 | 24 | 1003.6 |
| 20260503205019 | 21 | 280 | 8.0 | 20.9 | 0.00 | 0.00 | 0.00 | 25 | 1003.8 |
| 20260503204518 | 21 | 294 | 11.3 | 22.5 | 0.00 | 0.00 | 0.00 | 25 | 1003.8 |
| 20260503204018 | 21 | 285 | 11.3 | 30.6 | 0.00 | 0.00 | 0.00 | 24 | 1003.9 |
| 20260503203516 | 20 | 295 | 6.4 | 32.2 | 0.00 | 0.00 | 0.00 | 25 | 1003.9 |
| 20260503203035 | 21 | 298 | 19.3 | 32.2 | 0.00 | 0.00 | 0.00 | 25 | 1004.0 |
| 20260503202515 | 21 | 300 | 6.4 | 20.9 | 0.00 | 0.00 | 0.00 | 27 | 1004.0 |
| 20260503202015 | 21 | 293 | 8.0 | 22.5 | 0.00 | 0.00 | 0.00 | 26 | 1004.0 |
| 20260503201514 | 20 | 290 | 8.0 | 25.7 | 0.00 | 0.00 | 0.00 | 27 | 1004.1 |
| 20260503201013 | 20 | 279 | 11.3 | 27.4 | 0.00 | 0.00 | 0.00 | 26 | 1004.2 |
| 20260503200513 | 20 | 261 | 14.5 | 27.4 | 0.00 | 0.00 | 0.00 | 28 | 1004.2 |
| 20260503200013 | 20 | 292 | 9.7 | 22.5 | 0.00 | 0.00 | 0.00 | 30 | 1004.3 |
| 20260503195013 | 20 | 256 | 4.8 | 22.5 | 0.00 | 0.00 | 0.00 | 31 | 1004.3 |
| 20260503194531 | 20 | 242 | 9.7 | 32.2 | 0.00 | 0.00 | 0.00 | 29 | 1004.4 |
| 20260503194013 | 21 | 279 | 14.5 | 32.2 | 0.00 | 0.00 | 0.00 | 31 | 1004.3 |
| 20260503193513 | 20 | 287 | 8.0 | 20.9 | 0.00 | 0.00 | 0.00 | 31 | 1004.3 |
| 20260503193014 | 21 | 277 | 11.3 | 25.7 | 0.00 | 0.00 | 0.00 | 31 | 1004.4 |
| 20260503192511 | 21 | 282 | 9.7 | 20.9 | 0.00 | 0.00 | 0.00 | 31 | 1004.4 |
| 20260503192012 | 21 | 293 | 9.7 | 20.9 | 0.00 | 0.00 | 0.00 | 31 | 1004.3 |
| 20260503191511 | 21 | 271 | 9.7 | 17.7 | 0.00 | 0.00 | 0.00 | 33 | 1004.3 |
| 20260503191011 | 21 | 298 | 4.8 | 24.1 | 0.00 | 0.00 | 0.00 | 34 | 1004.2 |
| 20260503190512 | 21 | 279 | 8.0 | 24.1 | 0.00 | 0.00 | 0.00 | 34 | 1004.3 |
| 20260503190011 | 21 | 274 | 11.3 | 22.5 | 0.00 | 0.00 | 0.00 | 35 | 1004.3 |
| 20260503185012 | 21 | 299 | 4.8 | 22.5 | 0.00 | 0.00 | 0.00 | 32 | 1004.5 |
| 20260503184517 | 20 | 332 | 8.0 | 22.5 | 0.00 | 0.00 | 0.00 | 31 | 1004.5 |
| 20260503184008 | 20 | 297 | 6.4 | 25.7 | 0.00 | 0.00 | 0.00 | 32 | 1004.5 |
| 20260503183508 | 20 | 292 | 12.9 | 25.7 | 0.00 | 0.00 | 0.00 | 32 | 1004.6 |
| 20260503183008 | 20 | 291 | 8.0 | 24.1 | 0.00 | 0.00 | 0.00 | 34 | 1004.5 |
| 20260503182507 | 20 | 279 | 9.7 | 22.5 | 0.00 | 0.00 | 0.00 | 38 | 1004.5 |
| 20260503182006 | 20 | 255 | 9.7 | 24.1 | 0.00 | 0.00 | 0.00 | 38 | 1004.5 |
| 20260503181506 | 20 | 249 | 11.3 | 24.1 | 0.00 | 0.00 | 0.00 | 37 | 1004.6 |
| 20260503181005 | 20 | 288 | 6.4 | 20.9 | 0.00 | 0.00 | 0.00 | 36 | 1004.7 |
| 20260503180505 | 20 | 291 | 8.0 | 17.7 | 0.00 | 0.00 | 0.00 | 37 | 1004.8 |
| 20260503180005 | 20 | 279 | 8.0 | 20.9 | 0.00 | 0.00 | 0.00 | 36 | 1004.7 |
| 20260503175005 | 20 | 292 | 9.7 | 19.3 | 0.00 | 0.00 | 0.00 | 35 | 1005.0 |
| 20260503174505 | 20 | 294 | 3.2 | 19.3 | 0.00 | 0.00 | 0.00 | 36 | 1005.0 |
| 20260503174005 | 19 | 272 | 8.0 | 25.7 | 0.00 | 0.00 | 0.00 | 37 | 1005.0 |
| 20260503173504 | 19 | 294 | 9.7 | 25.7 | 0.00 | 0.00 | 0.00 | 37 | 1005.0 |
| 20260503173004 | 19 | 296 | 11.3 | 22.5 | 0.00 | 0.00 | 0.00 | 36 | 1005.1 |
| 20260503172503 | 19 | 294 | 9.7 | 22.5 | 0.00 | 0.00 | 0.00 | 36 | 1005.1 |
| 20260503172001 | 20 | 317 | 4.8 | 16.1 | 0.00 | 0.00 | 0.00 | 35 | 1005.1 |
| 20260503171502 | 20 | 348 | 6.4 | 12.9 | 0.00 | 0.00 | 0.00 | 36 | 1005.1 |
| 20260503171100 | 20 | 273 | 3.2 | 22.5 | 0.00 | 0.00 | 0.00 | 36 | 1005.1 |
| 20260503170559 | 19 | 280 | 11.3 | 27.4 | 0.00 | 0.00 | 0.00 | 36 | 1005.1 |
| 20260503150532 | 16 | 9 | 3.2 | 12.9 | 0.00 | 0.00 | 0.00 | 46 | 1004.9 |
| 20260503131009 | 12 | 229 | 3.2 | 9.7 | 0.00 | 0.00 | 0.00 | 53 | 1004.7 |
| 20260503130513 | 12 | 229 | 3.2 | 8.0 | 0.00 | 0.00 | 0.00 | 53 | 1004.6 |
| 20260503110548 | 11 | 178 | 1.6 | 6.4 | 0.00 | 0.00 | 0.00 | 56 | 1004.0 |
| 20260503081545 | 13 | 225 | 6.4 | 22.5 | 0.00 | 0.00 | 0.00 | 54 | 1005.1 |
| 20260503081037 | 12 | 229 | 6.4 | 22.5 | 0.00 | 0.00 | 0.00 | 54 | 1005.1 |
| 20260503080538 | 12 | 213 | 6.4 | 16.1 | 0.00 | 0.00 | 0.00 | 55 | 1005.2 |
| 20260503072535 | 12 | 191 | 6.4 | 20.9 | 0.00 | 0.00 | 0.00 | 57 | 1006.0 |
| 20260503072033 | 12 | 192 | 4.8 | 16.1 | 0.00 | 0.00 | 0.00 | 57 | 1006.0 |
| 20260503071532 | 12 | 193 | 6.4 | 17.7 | 0.00 | 0.00 | 0.00 | 58 | 1006.1 |
| 20260503071032 | 12 | 190 | 8.0 | 17.7 | 0.00 | 0.00 | 0.00 | 58 | 1006.2 |
| 20260503070531 | 12 | 195 | 8.0 | 17.7 | 0.00 | 0.00 | 0.00 | 59 | 1006.2 |